Date String (YYYY-MM-DD hh:mm:ss) UTC,Instrument flags,Ambient pressure (hPa),Sample flow (lpm),Bypass flow (lpm),Sample temperature (°C),Ambient temperature (°C),ASC tube jacket temperature (°C),LED temperature (°C),Box temperature (°C),Sample RH (%),Span deviation,Mass concentration (μg/m³),Mass concentration (μg/m³),Mass concentration (μg/m³)
DateTimeUTC,F1_M11,P_M11,Q1_M11,Q2_M11,T1_M11,T2_M11,T3_M11,T4_M11,T5_M11,U1_M11,ZSPAN_M11,X0_M11,X2_M11,X1_M11
2022-11-10 02:00:00,,0815.4,4.99,0.00,25.0,23.4,00.0,33.8,26.9,15.2,0000.1,0030.64,0012.66,0010.36
2022-11-10 02:01:00,,0815.4,5.02,0.00,25.0,23.4,00.0,33.8,26.9,15.2,-000.1,0031.71,0012.63,0010.30
2022-11-10 02:02:00,,0815.4,4.98,0.00,25.0,23.4,00.0,33.8,26.9,15.2,-000.2,0033.32,0012.56,0010.24
2022-11-10 02:03:00,,0815.4,5.00,0.00,25.0,23.4,00.0,33.7,26.9,15.2,-000.5,0033.23,0012.52,0010.16
2022-11-10 02:04:00,,0815.3,5.00,0.00,25.0,23.4,00.0,33.7,26.9,15.2,-000.6,0033.51,0012.47,0010.09
2022-11-10 02:05:00,,0815.4,5.00,0.00,25.0,23.4,00.0,33.7,26.9,15.2,-000.8,0034.20,0012.56,0010.05
2022-11-10 02:06:00,,0815.4,5.00,0.00,25.0,23.4,00.0,33.7,26.9,15.2,-000.6,0033.78,0012.57,0010.00
2022-11-10 02:07:00,,0815.4,5.01,0.00,25.0,23.4,00.0,33.7,26.9,15.3,-000.8,0033.72,0012.58,0009.96
2022-11-10 02:08:00,,0815.4,5.00,0.00,25.0,23.4,00.0,33.7,26.9,15.3,-000.7,0033.16,0012.51,0009.89
2022-11-10 02:09:00,,0815.7,4.99,0.00,25.0,23.4,00.0,33.7,26.9,15.3,-000.8,0033.40,0012.47,0009.85
2022-11-10 02:10:00,,0816.1,5.02,0.00,25.0,23.4,00.0,33.7,26.9,15.3,-000.9,0033.96,0012.39,0009.79
2022-11-10 02:11:00,,0815.7,5.00,0.00,25.0,23.4,00.0,33.7,26.9,15.3,-000.9,0032.40,0012.38,0009.76
2022-11-10 02:12:00,,0815.6,5.00,0.00,25.0,23.4,00.0,33.7,26.8,15.3,-001.0,0031.15,0012.31,0009.74
2022-11-10 02:13:00,,0815.7,4.99,0.00,25.0,23.4,00.0,33.7,26.8,15.3,-001.2,0029.65,0012.30,0009.73
2022-11-10 02:14:00,,0815.7,5.01,0.00,24.9,23.3,00.0,33.7,26.8,15.3,-001.2,0029.73,0012.30,0009.73
2022-11-10 02:15:00,,0815.8,5.01,0.00,24.9,23.3,00.0,33.7,26.8,15.3,-000.9,0029.83,0012.36,0009.73
2022-11-10 02:16:00,,0815.9,5.00,0.00,24.9,23.3,00.0,33.7,26.8,15.3,-000.9,0029.31,0012.28,0009.73
2022-11-10 02:17:00,,0815.8,5.00,0.00,24.9,23.3,00.0,33.7,26.8,15.2,-001.0,0029.09,0012.26,0009.72
2022-11-10 02:18:00,,0815.8,4.99,0.00,24.9,23.3,00.0,33.7,26.8,15.3,-000.5,0028.60,0012.26,0009.71
2022-11-10 02:19:00,,0815.8,4.99,0.00,24.9,23.3,00.0,33.7,26.8,15.3,-000.1,0027.86,0012.23,0009.70
2022-11-10 02:20:00,,0815.9,5.01,0.00,24.9,23.3,00.0,33.7,26.8,15.3,0000.0,0028.69,0012.23,0009.69
2022-11-10 02:21:00,,0815.9,5.01,0.00,24.9,23.3,00.0,33.7,26.8,15.3,-000.1,0031.53,0012.19,0009.68
2022-11-10 02:22:00,,0816.0,5.00,0.00,24.9,23.3,00.0,33.7,26.8,15.2,-000.2,0032.26,0012.12,0009.67
2022-11-10 02:23:00,,0816.1,4.99,0.00,24.9,23.3,00.0,33.7,26.8,15.2,-000.3,0033.92,0012.11,0009.67
2022-11-10 02:24:00,,0816.1,4.99,0.00,24.9,23.3,00.0,33.6,26.8,15.3,-000.0,0034.17,0012.11,0009.64
2022-11-10 02:25:00,,0816.1,5.02,0.00,24.9,23.3,00.0,33.6,26.8,15.3,0000.4,0034.49,0012.03,0009.60
2022-11-10 02:26:00,,0816.1,5.01,0.00,24.9,23.3,00.0,33.6,26.7,15.3,0000.4,0034.75,0011.98,0009.54
2022-11-10 02:27:00,,0816.0,5.00,0.00,24.9,23.3,00.0,33.6,26.7,15.3,0000.4,0034.75,0011.93,0009.48
2022-11-10 02:28:00,,0816.1,4.99,0.00,24.8,23.2,00.0,33.6,26.7,15.4,0000.2,0036.23,0011.90,0009.44
2022-11-10 02:29:00,,0816.0,5.00,0.00,24.8,23.2,00.0,33.6,26.7,15.4,-000.3,0037.65,0011.88,0009.40
2022-11-10 02:30:00,,0816.0,5.00,0.00,24.8,23.2,00.0,33.6,26.7,15.4,-000.9,0038.86,0011.87,0009.35
2022-11-10 02:31:00,,0815.9,5.00,0.00,24.8,23.2,00.0,33.6,26.7,15.4,-001.1,0038.24,0011.82,0009.29
2022-11-10 02:32:00,,0815.9,5.01,0.00,24.8,23.1,00.0,33.6,26.7,15.4,-001.0,0035.23,0011.86,0009.25
2022-11-10 02:33:00,,0816.0,5.01,0.00,24.8,22.9,00.0,33.6,26.6,15.4,-000.9,0034.38,0011.79,0009.19
2022-11-10 02:34:00,,0816.0,5.00,0.00,24.7,22.7,00.0,33.6,26.5,15.4,-001.0,0032.57,0011.64,0009.08
2022-11-10 02:35:00,,0816.0,5.00,0.00,24.7,22.6,00.0,33.6,26.5,15.4,-001.1,0031.85,0011.49,0008.97
2022-11-10 02:36:00,,0816.1,5.00,0.00,24.6,22.5,00.0,33.5,26.4,15.4,-001.3,0030.63,0011.30,0008.86
2022-11-10 02:37:00,,0816.0,5.01,0.00,24.6,22.4,00.0,33.5,26.3,15.5,-001.6,0030.34,0011.07,0008.75
2022-11-10 02:38:00,,0816.0,4.99,0.00,24.5,22.3,00.0,33.5,26.3,15.5,-001.7,0029.57,0010.92,0008.62
2022-11-10 02:39:00,,0816.0,5.00,0.00,24.5,22.3,00.0,33.5,26.2,15.5,-001.6,0027.31,0010.67,0008.44
2022-11-10 02:40:00,,0816.0,4.99,0.00,24.4,22.2,00.0,33.4,26.2,15.5,-001.5,0024.71,0010.37,0008.25
2022-11-10 02:41:00,,0816.0,5.00,0.00,24.4,22.2,00.0,33.4,26.1,15.6,-001.4,0022.68,0010.10,0008.08
2022-11-10 02:42:00,,0816.1,5.01,0.00,24.3,22.2,00.0,33.4,26.1,15.6,-001.1,0021.76,0009.82,0007.86
2022-11-10 02:43:00,,0816.2,5.01,0.00,24.3,22.2,00.0,33.3,26.1,15.6,-000.8,0020.66,0009.48,0007.60
2022-11-10 02:44:00,,0816.3,5.00,0.00,24.3,22.2,00.0,33.3,26.0,15.6,-000.8,0020.35,0009.20,0007.36
2022-11-10 02:45:00,,0816.3,5.00,0.00,24.3,22.2,00.0,33.3,26.0,15.7,-000.7,0020.52,0008.99,0007.16
2022-11-10 02:46:00,,0816.4,4.99,0.00,24.2,22.2,00.0,33.2,26.0,15.7,-000.6,0020.15,0008.77,0006.96
2022-11-10 02:47:00,,0816.6,5.01,0.00,24.2,22.1,00.0,33.2,25.9,15.7,-000.6,0020.15,0008.61,0006.77
2022-11-10 02:48:00,,0816.9,5.01,0.00,24.1,22.1,00.0,33.2,25.9,15.8,-000.2,0020.10,0008.40,0006.61
2022-11-10 02:49:00,,0817.0,5.00,0.00,24.1,22.1,00.0,33.2,25.9,15.8,0000.1,0021.63,0008.19,0006.46
2022-11-10 02:50:00,,0817.0,5.00,0.00,24.1,22.0,00.0,33.1,25.9,15.9,0000.2,0021.91,0008.02,0006.33
2022-11-10 02:51:00,,0817.0,5.00,0.00,24.0,21.8,00.0,33.1,25.7,15.9,0000.2,0023.16,0007.86,0006.25
2022-11-10 02:52:00,,0816.9,4.99,0.00,24.0,21.7,00.0,33.1,25.7,16.0,0000.0,0024.17,0007.80,0006.19
2022-11-10 02:53:00,,0817.0,5.00,0.00,23.9,21.6,00.0,33.0,25.6,16.0,-000.1,0024.76,0007.73,0006.16
2022-11-10 02:54:00,,0817.2,5.00,0.00,23.9,21.6,00.0,33.0,25.6,16.1,-000.5,0025.33,0007.75,0006.20
2022-11-10 02:55:00,,0817.2,5.01,0.00,23.9,21.6,00.0,33.0,25.6,16.1,-000.6,0024.93,0007.81,0006.24
2022-11-10 02:56:00,,0817.4,5.01,0.00,23.9,21.7,00.0,32.9,25.6,16.1,-000.3,0024.58,0007.87,0006.31
2022-11-10 02:57:00,,0817.3,4.99,0.00,23.8,21.6,00.0,32.9,25.5,16.1,0000.0,0024.91,0007.93,0006.38
2022-11-10 02:58:00,,0817.1,4.99,0.00,23.8,21.6,00.0,32.9,25.5,16.1,0000.0,0025.50,0008.04,0006.42
2022-11-10 02:59:00,,0817.0,5.01,0.00,23.8,21.6,00.0,32.8,25.5,16.1,-000.1,0024.71,0008.11,0006.42
